"Date","Time","Latitude","Longitude","Speed","Course","Altitude","Satellites","GPS quality","C1","0.25um","0.28um","0.3um","0.35um","0.4um","0.45um","0.5um","0.58um","C2","0.65um","0.7um","0.8um","1.0um","1.3um","1.6um","2.0um","2.5um","C3","3.0um","3.5um","4.0um","5.0um","6.5um","7.5um","8.5um","10.0um","C4","12.5um","15.0um","17.5um","20.0um","25.0um","30.0um","32.0um",">32um"
17/10/12,08:19:38,51 53.6227 N,002 09.7475 W,81.18,214.86,39.7,09,1,N1,186,185,184,183,182,181,179,178,N1,175,172,169,165,158,151,139,122,n1,89,44,23,0,0,0,0,0,n1,0,0,0,0,0,0,0,0
17/10/12,08:19:44,51 53.4920 N,002 09.8960 W,102.18,214.53,59.4,09,1,N2,174,173,172,171,170,169,168,167,N2,164,161,159,155,148,139,119,98,n2,81,45,24,24,16,0,0,0,n2,0,0,0,0,0,0,0,0
17/10/12,08:19:50,51 53.3671 N,002 10.0398 W,88.32,214.90,141.0,09,1,N3,142,141,141,140,139,138,136,135,N3,131,128,125,121,113,107,97,86,n3,68,39,18,0,0,0,0,0,n3,0,0,0,0,0,0,0,0
17/10/12,08:19:56,51 53.2561 N,002 10.1993 W,89.76,225.86,211.7,09,1,N4,189,188,187,186,185,184,183,182,N4,179,176,174,169,166,159,156,141,n4,93,69,42,32,16,0,0,0,n4,0,0,0,0,0,0,0,0
17/10/12,08:20:02,51 53.1576 N,002 10.3936 W,94.03,231.82,272.3,09,1,N5,186,185,184,183,183,181,180,179,N5,176,173,171,167,159,154,139,124,n5,88,55,34,24,16,0,0,0,n5,0,0,0,0,0,0,0,0
17/10/12,08:20:08,51 53.0536 N,002 10.5910 W,96.26,228.72,320.2,09,1,N6,170,169,168,167,167,165,165,164,N6,161,158,155,152,144,140,126,106,n6,89,55,25,16,0,0,0,0,n6,0,0,0,0,0,0,0,0
17/10/12,08:20:13,51 52.9639 N,002 10.7444 W,92.47,225.02,366.9,09,1,N7,174,173,172,172,171,170,168,166,N7,163,160,156,153,146,141,125,113,n7,104,70,28,24,0,0,0,0,n7,0,0,0,0,0,0,0,0
17/10/12,08:20:20,51 52.8380 N,002 10.9281 W,84.43,220.41,435.0,09,1,N8,182,181,180,180,179,178,177,176,N8,174,171,169,166,160,151,145,123,n8,97,64,52,48,0,0,0,0,n8,0,0,0,0,0,0,0,0
17/10/12,08:20:26,51 52.7241 N,002 11.0607 W,83.04,211.75,484.5,09,1,N9,177,176,176,175,174,173,172,170,N9,168,164,161,157,154,149,138,117,n9,92,75,47,24,16,0,0,0,n9,0,0,0,0,0,0,0,0
17/10/12,08:20:32,51 52.5910 N,002 11.1146 W,84.17,184.44,534.6,09,1,N0,119,118,118,117,117,116,114,113,N0,110,107,105,101,97,91,89,78,n0,55,51,18,0,0,0,0,0,n0,0,0,0,0,0,0,0,0
17/10/12,08:20:38,51 52.4494 N,002 11.0938 W,84.92,173.23,588.6,09,1,N1,93,92,92,91,91,90,89,88,N1,86,83,80,77,69,65,61,50,n1,50,41,20,16,0,0,0,0,n1,0,0,0,0,0,0,0,0
17/10/12,08:20:44,51 52.3146 N,002 11.0565 W,79.63,168.85,645.6,09,1,N2,73,73,72,72,71,69,68,67,N2,65,62,61,58,53,47,41,38,n2,35,25,13,0,0,0,0,0,n2,0,0,0,0,0,0,0,0
17/10/12,08:20:50,51 52.1808 N,002 11.0104 W,81.50,167.25,677.0,09,1,N3,98,98,97,97,96,94,93,92,N3,89,86,83,81,74,69,61,57,n3,35,18,12,8,0,0,0,0,n3,0,0,0,0,0,0,0,0
17/10/12,08:20:56,51 52.0031 N,002 10.9644 W,107.05,171.50,653.9,09,1,N4,82,81,81,81,80,79,78,77,N4,73,69,67,63,57,54,46,33,n4,28,17,8,8,0,0,0,0,n4,0,0,0,0,0,0,0,0
17/10/12,08:21:02,51 51.8134 N,002 10.9274 W,114.47,173.75,647.6,09,1,N5,132,131,130,129,128,127,126,125,N5,122,120,117,114,107,100,90,74,n5,65,43,28,24,0,0,0,0,n5,0,0,0,0,0,0,0,0
17/10/12,08:21:08,51 51.6209 N,002 10.8978 W,114.98,174.20,647.3,09,1,N6,115,114,114,113,112,111,110,110,N6,107,104,101,97,90,82,72,59,n6,54,31,16,16,0,0,0,0,n6,0,0,0,0,0,0,0,0
17/10/12,08:21:11,51 51.4614 N,002 10.8732 W,114.53,174.50,647.4,09,1,N7,88,87,86,86,85,84,82,81,N7,78,74,73,71,68,64,51,40,n7,36,27,21,8,0,0,0,0,n7,0,0,0,0,0,0,0,0
17/10/12,08:21:18,51 51.2398 N,002 10.8375 W,113.64,174.45,647.7,09,1,N8,124,123,123,122,122,121,120,119,N8,117,114,112,109,104,102,96,83,n8,73,51,42,32,16,0,0,0,n8,0,0,0,0,0,0,0,0
17/10/12,08:21:24,51 51.0519 N,002 10.8047 W,112.70,173.76,647.3,09,1,N9,92,91,91,90,90,88,87,86,N9,84,81,79,75,72,67,63,60,n9,53,41,17,8,0,0,0,0,n9,0,0,0,0,0,0,0,0
17/10/12,08:21:30,51 50.8659 N,002 10.7708 W,111.49,173.49,645.2,09,1,N0,65,64,64,63,63,62,61,60,N0,57,55,53,49,44,40,34,26,n0,26,26,26,8,0,0,0,0,n0,0,0,0,0,0,0,0,0
17/10/12,08:21:36,51 50.6846 N,002 10.7328 W,108.39,172.45,642.5,09,1,N1,105,104,103,102,102,101,100,99,N1,97,94,92,89,87,84,78,75,n1,50,35,29,16,0,0,0,0,n1,0,0,0,0,0,0,0,0
17/10/12,08:21:42,51 50.5092 N,002 10.6919 W,105.14,171.86,641.1,09,1,N2,69,68,68,67,67,66,65,64,N2,62,60,58,54,50,47,35,30,n2,26,13,4,0,0,0,0,0,n2,0,0,0,0,0,0,0,0
17/10/12,08:21:48,51 50.3394 N,002 10.6522 W,101.75,171.75,641.3,09,1,N3,62,62,61,61,60,60,58,57,N3,56,53,50,46,44,40,40,30,n3,30,30,24,24,0,0,0,0,n3,0,0,0,0,0,0,0,0
17/10/12,08:21:54,51 50.1751 N,002 10.6121 W,98.83,171.35,640.8,09,1,N4,87,86,85,85,84,83,82,81,N4,79,76,75,72,69,66,52,46,n4,41,22,16,16,0,0,0,0,n4,0,0,0,0,0,0,0,0
17/10/12,08:22:00,51 50.0151 N,002 10.5732 W,96.29,171.17,635.6,09,1,N5,90,89,89,88,87,87,85,84,N5,81,78,76,72,69,64,61,48,n5,47,34,31,8,0,0,0,0,n5,0,0,0,0,0,0,0,0
17/10/12,08:22:06,51 49.8585 N,002 10.5331 W,94.46,171.02,624.7,09,1,N6,73,72,72,71,71,70,68,67,N6,66,63,61,58,55,51,51,43,n6,43,42,24,24,0,0,0,0,n6,0,0,0,0,0,0,0,0
17/10/12,08:22:12,51 49.7048 N,002 10.4940 W,92.53,171.14,618.3,09,1,N7,73,73,72,72,71,70,69,68,N7,64,61,59,56,55,49,43,28,n7,26,18,12,8,0,0,0,0,n7,0,0,0,0,0,0,0,0
17/10/12,08:22:18,51 49.5536 N,002 10.4555 W,91.56,171.27,612.7,09,1,N8,50,49,48,48,47,46,45,44,N8,42,40,38,35,33,28,24,20,n8,20,20,8,8,0,0,0,0,n8,0,0,0,0,0,0,0,0
17/10/12,08:22:24,51 49.4040 N,002 10.4193 W,90.56,171.99,605.0,09,1,N9,64,63,63,62,62,61,60,59,N9,56,53,52,49,47,43,38,23,n9,16,3,0,0,0,0,0,0,n9,0,0,0,0,0,0,0,0
17/10/12,08:22:30,51 49.2559 N,002 10.3875 W,89.57,172.38,593.8,09,1,N0,95,95,94,94,93,92,90,89,N0,87,83,81,78,73,67,62,48,n0,41,28,16,16,0,0,0,0,n0,0,0,0,0,0,0,0,0
17/10/12,08:22:36,51 49.1084 N,002 10.3586 W,89.61,172.96,580.8,09,1,N1,142,141,141,140,139,138,137,136,N1,133,130,129,126,121,115,107,98,n1,60,46,28,24,0,0,0,0,n1,0,0,0,0,0,0,0,0
17/10/12,08:22:41,51 48.9897 N,002 10.3369 W,85.08,173.59,582.9,09,1,N2,156,155,154,153,153,152,151,149,N2,146,143,140,136,134,127,115,97,n2,59,48,29,16,0,0,0,0,n2,0,0,0,0,0,0,0,0
17/10/12,08:22:48,51 48.8365 N,002 10.3147 W,76.92,175.32,593.8,09,1,N3,144,144,143,143,142,141,140,139,N3,137,134,132,127,123,117,110,86,n3,68,43,28,24,0,0,0,0,n3,0,0,0,0,0,0,0,0
17/10/12,08:22:54,51 48.7113 N,002 10.3033 W,74.88,177.52,595.6,09,1,N4,133,132,131,131,130,129,128,127,N4,124,120,118,114,111,104,95,79,n4,55,39,9,0,0,0,0,0,n4,0,0,0,0,0,0,0,0
17/10/12,08:23:00,51 48.5800 N,002 10.2977 W,82.30,179.86,603.3,09,1,N5,156,155,155,154,153,153,151,150,N5,148,144,142,139,135,131,119,104,n5,71,51,39,16,0,0,0,0,n5,0,0,0,0,0,0,0,0
17/10/12,08:23:06,51 48.4363 N,002 10.3033 W,88.98,181.80,620.7,09,1,N6,141,140,139,139,138,137,136,134,N6,132,129,128,125,120,112,98,78,n6,46,24,12,8,0,0,0,0,n6,0,0,0,0,0,0,0,0
17/10/12,08:23:12,51 48.2821 N,002 10.3101 W,93.66,182.22,647.8,09,1,N7,112,111,110,110,109,108,107,106,N7,103,99,96,93,87,83,80,71,n7,60,33,18,0,0,0,0,0,n7,0,0,0,0,0,0,0,0
17/10/12,08:23:19,51 48.0963 N,002 10.3184 W,96.68,180.61,678.1,09,1,N8,99,99,98,98,97,96,95,94,N8,90,86,85,80,76,73,65,48,n8,37,21,12,8,0,0,0,0,n8,0,0,0,0,0,0,0,0
17/10/12,08:23:24,51 47.9618 N,002 10.3207 W,96.03,180.60,697.6,09,1,N9,83,82,82,81,81,80,79,78,N9,76,73,70,67,64,61,57,49,n9,38,24,12,8,0,0,0,0,n9,0,0,0,0,0,0,0,0
17/10/12,08:23:30,51 47.7946 N,002 10.3235 W,100.52,180.26,704.0,09,1,N0,75,75,74,73,73,72,71,71,N0,69,66,64,62,56,50,42,30,n0,29,21,12,8,0,0,0,0,n0,0,0,0,0,0,0,0,0
17/10/12,08:23:36,51 47.6187 N,002 10.3209 W,104.68,179.27,695.8,09,1,N1,63,63,62,62,61,60,59,58,N1,56,54,52,49,46,42,33,25,n1,22,21,9,0,0,0,0,0,n1,0,0,0,0,0,0,0,0
17/10/12,08:23:41,51 47.4725 N,002 10.3139 W,104.90,177.84,691.7,09,1,N2,72,72,71,71,70,69,69,67,N2,65,63,61,57,52,49,39,35,n2,35,35,29,24,16,0,0,0,n2,0,0,0,0,0,0,0,0
17/10/12,08:23:48,51 47.2688 N,002 10.2970 W,104.49,176.61,684.2,09,1,N3,78,78,77,77,76,75,74,74,N3,72,70,68,63,60,55,51,36,n3,36,30,21,8,0,0,0,0,n3,0,0,0,0,0,0,0,0
17/10/12,08:23:54,51 47.0964 N,002 10.2788 W,103.02,176.08,683.2,09,1,N4,69,68,68,67,67,66,65,64,N4,62,60,58,55,52,51,43,35,n4,25,16,4,0,0,0,0,0,n4,0,0,0,0,0,0,0,0
17/10/12,08:24:00,51 46.9262 N,002 10.2578 W,101.99,175.59,682.7,09,1,N5,79,78,78,77,77,76,74,73,N5,71,68,66,62,58,55,49,40,n5,31,22,13,0,0,0,0,0,n5,0,0,0,0,0,0,0,0
17/10/12,08:24:06,51 46.7574 N,002 10.2374 W,101.04,175.87,681.6,09,1,N6,107,106,106,105,105,103,102,101,N6,99,95,94,89,85,80,71,60,n6,38,15,0,0,0,0,0,0,n6,0,0,0,0,0,0,0,0
17/10/12,08:24:11,51 46.6169 N,002 10.2185 W,101.59,174.88,677.1,09,1,N7,114,113,113,112,112,110,109,109,N7,107,103,100,98,91,85,72,55,n7,55,48,29,16,0,0,0,0,n7,0,0,0,0,0,0,0,0
17/10/12,08:24:18,51 46.4219 N,002 10.1946 W,100.09,175.73,677.3,09,1,N8,132,131,131,130,129,128,127,126,N8,124,120,119,116,113,106,98,87,n8,87,74,50,41,33,0,0,0,n8,0,0,0,0,0,0,0,0
17/10/12,08:24:24,51 46.2564 N,002 10.1712 W,99.60,174.84,678.1,09,1,N9,146,146,145,144,144,143,141,141,N9,137,134,133,130,125,120,104,100,n9,79,63,45,40,16,0,0,0,n9,0,0,0,0,0,0,0,0
17/10/12,08:24:30,51 46.0924 N,002 10.1465 W,98.55,174.44,675.1,09,1,N0,62,61,61,60,60,59,58,57,N0,55,52,50,47,45,44,40,29,n0,28,27,9,0,0,0,0,0,n0,0,0,0,0,0,0,0,0
17/10/12,08:24:36,51 45.9304 N,002 10.1187 W,97.41,173.61,673.8,09,1,N1,104,103,102,102,101,100,99,98,N1,96,92,91,88,86,84,80,72,n1,61,45,29,16,0,0,0,0,n1,0,0,0,0,0,0,0,0
17/10/12,08:24:41,51 45.7976 N,002 10.0930 W,95.98,172.97,675.1,09,1,N2,79,78,78,77,77,76,75,74,N2,72,69,67,65,60,58,51,41,n2,39,26,17,8,0,0,0,0,n2,0,0,0,0,0,0,0,0
17/10/12,08:24:48,51 45.6146 N,002 10.0549 W,94.55,172.38,677.1,09,1,N3,81,81,80,79,79,78,77,76,N3,74,72,70,68,64,61,51,37,n3,35,21,12,8,0,0,0,0,n3,0,0,0,0,0,0,0,0
17/10/12,08:24:54,51 45.4595 N,002 10.0217 W,93.77,172.33,676.4,09,1,N4,84,84,83,82,82,80,80,79,N4,77,74,72,69,64,59,58,47,n4,23,9,0,0,0,0,0,0,n4,0,0,0,0,0,0,0,0
17/10/12,08:25:00,51 45.3055 N,002 09.9874 W,93.07,172.06,675.0,09,1,N5,71,70,70,69,69,68,66,66,N5,64,61,58,56,53,48,44,33,n5,29,29,20,16,0,0,0,0,n5,0,0,0,0,0,0,0,0
17/10/12,08:25:06,51 45.1522 N,002 09.9516 W,92.81,171.42,676.3,09,1,N6,96,95,95,94,94,93,91,90,N6,88,86,84,82,76,73,68,57,n6,49,28,25,16,0,0,0,0,n6,0,0,0,0,0,0,0,0
17/10/12,08:25:12,51 45.0001 N,002 09.9170 W,92.31,171.86,677.6,09,1,N7,69,69,68,68,67,66,65,64,N7,62,60,56,54,49,46,41,27,n7,27,24,0,0,0,0,0,0,n7,0,0,0,0,0,0,0,0
17/10/12,08:25:18,51 44.8476 N,002 09.8822 W,92.63,171.94,677.0,09,1,N8,95,94,93,93,92,91,90,89,N8,87,84,83,80,77,71,65,54,n8,40,32,20,16,0,0,0,0,n8,0,0,0,0,0,0,0,0
17/10/12,08:25:24,51 44.6947 N,002 09.8482 W,92.74,172.32,675.6,09,1,N9,65,65,64,64,63,62,61,60,N9,57,54,52,48,43,37,35,23,n9,21,15,0,0,0,0,0,0,n9,0,0,0,0,0,0,0,0
17/10/12,08:25:30,51 44.5413 N,002 09.8150 W,93.04,172.45,676.8,09,1,N0,87,86,86,85,84,83,82,81,N0,78,75,74,72,67,62,54,51,n0,44,41,17,8,0,0,0,0,n0,0,0,0,0,0,0,0,0
17/10/12,08:25:36,51 44.3862 N,002 09.7852 W,94.30,173.41,677.7,09,1,N1,95,94,94,93,92,91,90,89,N1,86,82,81,76,72,69,66,57,n1,27,17,8,8,0,0,0,0,n1,0,0,0,0,0,0,0,0
17/10/12,08:25:41,51 44.2550 N,002 09.7621 W,95.40,173.85,678.2,09,1,N2,114,114,113,113,112,111,109,108,N2,106,104,102,98,95,91,89,84,n2,70,55,28,24,0,0,0,0,n2,0,0,0,0,0,0,0,0
17/10/12,08:25:48,51 44.0684 N,002 09.7310 W,97.13,174.10,677.3,09,1,N3,89,89,88,88,87,86,85,83,N3,81,76,74,72,66,63,57,50,n3,44,34,21,8,0,0,0,0,n3,0,0,0,0,0,0,0,0
17/10/12,08:25:54,51 43.9092 N,002 09.7044 W,95.21,173.85,677.6,09,1,N4,130,130,129,129,128,127,126,125,N4,123,120,118,114,111,106,98,85,n4,66,52,46,32,16,0,0,0,n4,0,0,0,0,0,0,0,0
17/10/12,08:26:00,51 43.7546 N,002 09.6764 W,92.62,173.36,678.5,09,1,N5,99,98,98,97,97,95,94,93,N5,90,87,84,82,78,72,62,58,n5,48,31,25,16,0,0,0,0,n5,0,0,0,0,0,0,0,0
17/10/12,08:26:06,51 43.6043 N,002 09.6483 W,90.05,173.28,679.8,09,1,N6,76,76,75,75,74,73,72,71,N6,68,65,62,59,56,51,48,40,n6,31,23,8,8,0,0,0,0,n6,0,0,0,0,0,0,0,0
17/10/12,08:26:11,51 43.4808 N,002 09.6150 W,91.41,167.83,677.1,09,1,N7,74,73,73,73,72,71,70,69,N7,66,64,62,59,56,53,48,32,n7,24,21,12,8,0,0,0,0,n7,0,0,0,0,0,0,0,0
17/10/12,08:26:18,51 43.3183 N,002 09.4204 W,116.41,130.33,677.3,09,1,N8,71,70,69,69,68,68,66,66,N8,63,59,56,53,50,45,35,29,n8,22,21,0,0,0,0,0,0,n8,0,0,0,0,0,0,0,0
17/10/12,08:26:24,51 43.2535 N,002 09.0845 W,138.69,98.16,706.4,09,1,N9,97,96,96,95,95,94,93,92,N9,88,85,82,79,75,71,68,60,n9,30,27,9,0,0,0,0,0,n9,0,0,0,0,0,0,0,0
17/10/12,08:26:30,51 43.3128 N,002 08.7007 W,151.23,66.38,751.5,09,1,N0,60,59,59,58,58,57,56,54,N0,52,49,46,43,40,39,35,28,n0,20,14,8,8,0,0,0,0,n0,0,0,0,0,0,0,0,0
17/10/12,08:26:36,51 43.4652 N,002 08.3744 W,147.99,51.47,817.6,09,1,N1,71,70,70,70,69,68,67,66,N1,64,61,59,56,54,50,42,33,n1,33,33,33,24,0,0,0,0,n1,0,0,0,0,0,0,0,0
17/10/12,08:26:42,51 43.6121 N,002 08.0563 W,145.67,54.87,876.5,09,1,N2,63,63,62,62,61,60,59,58,N2,56,54,52,51,48,45,37,37,n2,27,14,8,8,0,0,0,0,n2,0,0,0,0,0,0,0,0
17/10/12,08:26:48,51 43.7423 N,002 07.7248 W,145.65,59.15,913.8,09,1,N3,66,65,65,64,64,63,63,62,N3,59,57,55,53,52,47,44,32,n3,22,19,16,16,0,0,0,0,n3,0,0,0,0,0,0,0,0
17/10/12,08:26:54,51 43.8661 N,002 07.3838 W,146.97,60.21,948.1,09,1,N4,72,72,71,71,71,70,69,68,N4,67,64,62,59,56,53,51,48,n4,43,32,13,0,0,0,0,0,n4,0,0,0,0,0,0,0,0
17/10/12,08:27:00,51 43.9933 N,002 07.0259 W,157.44,60.25,958.0,09,1,N5,75,74,74,73,73,72,72,71,N5,68,66,65,62,60,59,56,51,n5,32,9,0,0,0,0,0,0,n5,0,0,0,0,0,0,0,0
17/10/12,08:27:06,51 44.1249 N,002 06.6300 W,172.08,62.67,938.7,09,1,N6,59,58,58,57,57,56,56,55,N6,53,50,49,48,45,41,36,22,n6,19,8,8,8,0,0,0,0,n6,0,0,0,0,0,0,0,0
17/10/12,08:27:11,51 44.2399 N,002 06.2755 W,180.52,62.04,929.4,09,1,N7,77,76,76,76,75,74,73,73,N7,71,69,67,64,63,60,53,47,n7,29,11,8,8,0,0,0,0,n7,0,0,0,0,0,0,0,0
17/10/12,08:27:18,51 44.4070 N,002 05.7606 W,186.93,62.71,930.0,09,1,N8,50,50,50,49,49,48,47,46,N8,44,42,41,38,34,28,27,15,n8,14,13,4,0,0,0,0,0,n8,0,0,0,0,0,0,0,0
17/10/12,08:27:24,51 44.5758 N,002 05.3268 W,192.45,54.60,933.5,09,1,N9,70,69,69,68,68,67,66,66,N9,64,62,61,58,57,52,50,46,n9,35,29,20,16,0,0,0,0,n9,0,0,0,0,0,0,0,0
17/10/12,08:27:30,51 44.7925 N,002 04.9359 W,196.07,46.24,939.8,09,1,N0,63,62,62,61,61,60,59,59,N0,57,54,52,49,47,42,35,30,n0,27,20,20,16,0,0,0,0,n0,0,0,0,0,0,0,0,0
17/10/12,08:27:36,51 45.0197 N,002 04.5490 W,199.04,47.64,942.0,09,1,N1,56,55,54,54,54,53,52,51,N1,50,48,46,43,41,39,33,30,n1,28,23,17,8,0,0,0,0,n1,0,0,0,0,0,0,0,0
17/10/12,08:27:41,51 45.1912 N,002 04.1958 W,200.76,54.10,942.6,09,1,N2,49,49,49,48,48,47,47,46,N2,45,43,42,40,36,33,31,23,n2,17,17,8,8,0,0,0,0,n2,0,0,0,0,0,0,0,0
17/10/12,08:27:48,51 45.3924 N,002 03.6537 W,202.16,61.43,942.7,09,1,N3,116,116,115,115,114,113,112,112,N3,109,108,106,103,100,97,88,81,n3,50,29,17,8,0,0,0,0,n3,0,0,0,0,0,0,0,0
17/10/12,08:27:54,51 45.5402 N,002 03.1632 W,203.38,65.16,942.1,09,1,N4,76,75,75,74,74,74,73,72,N4,71,69,67,65,62,60,57,53,n4,28,25,16,16,16,0,0,0,n4,0,0,0,0,0,0,0,0
17/10/12,08:28:00,51 45.6746 N,002 02.6590 W,204.60,67.37,941.9,09,1,N5,83,82,82,81,81,80,79,78,N5,77,74,73,70,65,62,58,49,n5,42,36,18,0,0,0,0,0,n5,0,0,0,0,0,0,0,0
17/10/12,08:28:06,51 45.8008 N,002 02.1465 W,205.64,68.73,941.4,09,1,N6,84,84,83,83,83,82,82,81,N6,79,77,75,73,70,69,66,59,n6,51,41,29,24,16,0,0,0,n6,0,0,0,0,0,0,0,0
17/10/12,08:28:12,51 45.9207 N,002 01.6279 W,206.17,69.88,942.6,09,1,N7,29,29,28,28,27,27,25,25,N7,23,21,20,16,14,13,12,0,n7,0,0,0,0,0,0,0,0,n7,0,0,0,0,0,0,0,0
17/10/12,08:28:18,51 46.0353 N,002 01.1043 W,207.02,70.78,941.6,09,1,N8,68,68,67,67,66,65,65,64,N8,62,60,59,56,52,51,47,39,n8,32,19,4,0,0,0,0,0,n8,0,0,0,0,0,0,0,0
17/10/12,08:28:24,51 46.1450 N,002 00.5762 W,207.55,71.72,941.6,09,1,N9,65,65,64,64,63,63,62,62,N9,59,57,56,55,51,48,41,32,n9,29,27,21,8,0,0,0,0,n9,0,0,0,0,0,0,0,0
17/10/12,08:28:30,51 46.2505 N,002 00.0452 W,207.06,72.55,947.9,09,1,N0,52,52,51,51,50,50,49,48,N0,47,44,42,39,36,34,29,29,n0,29,25,4,0,0,0,0,0,n0,0,0,0,0,0,0,0,0
17/10/12,08:28:36,51 46.3500 N,001 59.5195 W,203.34,73.19,970.5,09,1,N1,59,58,58,57,57,56,56,55,N1,53,51,49,47,43,40,36,33,n1,14,7,4,0,0,0,0,0,n1,0,0,0,0,0,0,0,0
17/10/12,08:28:41,51 46.4296 N,001 59.0858 W,202.49,73.38,976.2,09,1,N2,59,58,58,57,57,56,55,54,N2,52,50,48,45,43,41,38,29,n2,26,24,12,8,0,0,0,0,n2,0,0,0,0,0,0,0,0
17/10/12,08:28:48,51 46.5345 N,001 58.4752 W,202.62,74.76,971.2,09,1,N3,74,74,74,73,73,72,71,71,N3,69,67,66,64,60,59,53,47,n3,35,21,18,0,0,0,0,0,n3,0,0,0,0,0,0,0,0
17/10/12,08:28:54,51 46.6219 N,001 57.9478 W,203.97,75.04,962.5,09,1,N4,50,49,49,49,48,48,47,46,N4,44,42,41,37,34,30,25,22,n4,19,13,4,0,0,0,0,0,n4,0,0,0,0,0,0,0,0
17/10/12,08:29:00,51 46.7073 N,001 57.4175 W,203.86,75.31,959.1,09,1,N5,73,73,72,72,72,71,70,70,N5,68,66,65,62,60,54,53,51,n5,51,51,42,24,0,0,0,0,n5,0,0,0,0,0,0,0,0
17/10/12,08:29:06,51 46.8603 N,001 56.9238 W,209.15,56.14,960.1,09,1,N6,87,87,86,86,86,85,84,83,N6,81,79,78,76,73,70,63,62,n6,61,55,34,24,16,0,0,0,n6,0,0,0,0,0,0,0,0
17/10/12,08:29:11,51 47.0754 N,001 56.6128 W,207.94,35.87,958.3,09,1,N7,74,73,73,72,72,71,70,69,N7,67,65,64,61,59,58,56,50,n7,43,40,34,24,16,0,0,0,n7,0,0,0,0,0,0,0,0
17/10/12,08:29:18,51 47.4477 N,001 56.4379 W,196.87,5.75,965.9,09,1,N8,49,49,48,48,47,47,46,45,N8,44,42,41,38,34,33,29,29,n8,27,21,12,8,0,0,0,0,n8,0,0,0,0,0,0,0,0
17/10/12,08:29:24,51 47.7549 N,001 56.5469 W,189.03,339.64,964.1,09,1,N9,65,65,64,64,63,63,62,61,N9,60,58,57,54,51,45,44,42,n9,29,28,16,16,0,0,0,0,n9,0,0,0,0,0,0,0,0
17/10/12,08:29:30,51 47.9546 N,001 56.8474 W,156.11,306.96,960.4,09,1,N0,68,67,67,66,66,65,65,64,N0,63,60,60,57,53,51,50,40,n0,25,16,4,0,0,0,0,0,n0,0,0,0,0,0,0,0,0
17/10/12,08:29:36,51 48.0105 N,001 57.2114 W,131.90,279.02,981.1,09,1,N1,40,40,39,39,38,38,37,36,N1,34,32,30,29,27,24,21,18,n1,16,6,0,0,0,0,0,0,n1,0,0,0,0,0,0,0,0
17/10/12,08:29:41,51 47.9586 N,001 57.4887 W,123.51,248.31,976.6,09,1,N2,44,43,43,43,42,41,41,40,N2,38,36,35,33,32,30,28,23,n2,23,16,16,16,16,0,0,0,n2,0,0,0,0,0,0,0,0
17/10/12,08:29:48,51 47.7726 N,001 57.7258 W,123.36,201.87,969.0,09,1,N3,37,37,36,36,36,35,34,33,N3,32,30,28,25,23,19,13,11,n3,11,6,0,0,0,0,0,0,n3,0,0,0,0,0,0,0,0
17/10/12,08:29:54,51 47.5564 N,001 57.6960 W,135.90,163.10,973.7,09,1,N4,53,52,52,51,51,50,50,49,N4,47,44,42,41,38,36,34,23,n4,23,23,17,8,0,0,0,0,n4,0,0,0,0,0,0,0,0
17/10/12,08:30:00,51 47.3650 N,001 57.4485 W,153.61,131.84,988.8,09,1,N5,25,25,25,24,24,23,23,22,N5,20,19,16,14,10,8,4,0,n5,0,0,0,0,0,0,0,0,n5,0,0,0,0,0,0,0,0
17/10/12,08:30:06,51 47.2564 N,001 57.0373 W,173.84,104.14,989.2,08,1,N6,62,61,61,60,60,59,58,57,N6,54,52,51,49,47,43,34,22,n6,3,3,0,0,0,0,0,0,n6,0,0,0,0,0,0,0,0
17/10/12,08:30:11,51 47.2615 N,001 56.6212 W,189.01,83.64,982.8,08,1,N7,41,41,40,40,40,39,38,37,N7,35,33,31,28,23,21,18,14,n7,7,3,0,0,0,0,0,0,n7,0,0,0,0,0,0,0,0
17/10/12,08:30:18,51 47.3267 N,001 56.0334 W,184.84,84.82,1001.8,09,1,N8,50,50,49,49,49,48,47,46,N8,45,43,41,39,35,34,29,23,n8,22,15,0,0,0,0,0,0,n8,0,0,0,0,0,0,0,0
17/10/12,08:30:24,51 47.2819 N,001 55.5783 W,164.51,105.50,1020.2,09,1,N9,64,64,63,63,63,62,61,61,N9,59,57,56,54,51,50,43,40,n9,24,22,16,16,16,0,0,0,n9,0,0,0,0,0,0,0,0
17/10/12,08:30:30,51 47.1190 N,001 55.2692 W,144.32,141.03,1011.9,08,1,N0,24,24,24,23,23,22,22,21,N0,20,18,16,14,11,9,4,0,n0,0,0,0,0,0,0,0,0,n0,0,0,0,0,0,0,0,0
17/10/12,08:30:36,51 46.9093 N,001 55.1902 W,123.18,180.17,1003.0,09,1,N1,58,58,57,57,56,56,55,54,N1,52,51,48,46,44,42,38,30,n1,16,15,0,0,0,0,0,0,n1,0,0,0,0,0,0,0,0
17/10/12,08:30:41,51 46.7647 N,001 55.3056 W,113.95,215.81,1007.3,09,1,N2,58,58,57,57,57,56,55,55,N2,53,51,50,49,47,46,42,34,n2,29,18,12,8,0,0,0,0,n2,0,0,0,0,0,0,0,0
17/10/12,08:30:48,51 46.6663 N,001 55.6334 W,122.23,258.51,996.9,09,1,N3,93,93,92,92,92,91,91,90,N3,89,87,86,83,81,76,75,70,n3,61,48,42,24,0,0,0,0,n3,0,0,0,0,0,0,0,0
17/10/12,08:30:54,51 46.7095 N,001 55.9907 W,140.62,289.91,991.0,09,1,N4,61,61,60,60,59,59,58,57,N4,55,53,52,50,45,41,34,30,n4,22,22,0,0,0,0,0,0,n4,0,0,0,0,0,0,0,0
17/10/12,08:31:00,51 46.8647 N,001 56.3126 W,153.38,314.44,1007.7,09,1,N5,36,35,35,35,34,33,33,32,N5,30,28,27,25,21,18,14,13,n5,13,7,4,0,0,0,0,0,n5,0,0,0,0,0,0,0,0
17/10/12,08:31:06,51 47.0902 N,001 56.5496 W,164.04,332.01,1023.0,08,1,N6,43,42,42,42,41,41,40,39,N6,38,36,35,32,27,25,22,15,n6,14,13,4,0,0,0,0,0,n6,0,0,0,0,0,0,0,0
17/10/12,08:31:11,51 47.3183 N,001 56.6657 W,174.00,346.74,1026.6,09,1,N7,70,70,69,69,69,68,67,66,N7,65,62,61,58,55,53,50,43,n7,33,30,24,24,16,0,0,0,n7,0,0,0,0,0,0,0,0
17/10/12,08:31:18,51 47.6763 N,001 56.6408 W,190.75,11.35,1020.8,08,1,N8,90,89,89,88,88,87,87,86,N8,85,83,81,81,78,74,70,67,n8,43,24,12,8,0,0,0,0,n8,0,0,0,0,0,0,0,0
17/10/12,08:31:24,51 47.9742 N,001 56.3973 W,202.85,33.40,1000.9,09,1,N9,52,51,51,50,50,49,49,48,N9,46,45,43,40,39,35,32,26,n9,24,15,12,8,0,0,0,0,n9,0,0,0,0,0,0,0,0
17/10/12,08:31:30,51 48.2341 N,001 56.0317 W,206.23,44.01,990.7,09,1,N0,51,50,50,50,49,48,48,47,N0,45,41,40,37,34,31,29,26,n0,25,14,8,8,0,0,0,0,n0,0,0,0,0,0,0,0,0
17/10/12,08:31:36,51 48.4564 N,001 55.6066 W,205.20,51.57,993.8,09,1,N1,52,51,51,51,50,49,49,48,N1,47,44,43,41,36,34,34,27,n1,18,15,9,0,0,0,0,0,n1,0,0,0,0,0,0,0,0
17/10/12,08:31:42,51 48.6574 N,001 55.1609 W,203.95,55.59,995.4,09,1,N2,42,41,41,41,40,39,39,38,N2,36,34,32,30,26,24,21,18,n2,18,18,9,0,0,0,0,0,n2,0,0,0,0,0,0,0,0
17/10/12,08:31:48,51 48.7942 N,001 54.6639 W,202.12,70.71,979.1,09,1,N3,46,46,45,45,45,44,43,42,N3,40,38,37,34,31,27,22,14,n3,14,9,9,0,0,0,0,0,n3,0,0,0,0,0,0,0,0
17/10/12,08:31:54,51 48.8337 N,001 54.1406 W,192.94,88.43,968.5,09,1,N4,80,79,79,78,78,77,77,76,N4,74,72,70,69,65,62,52,45,n4,33,15,12,8,0,0,0,0,n4,0,0,0,0,0,0,0,0
17/10/12,08:32:00,51 48.7854 N,001 53.6561 W,176.49,102.98,968.2,09,1,N5,45,45,44,44,43,43,42,41,N5,39,37,36,34,32,27,22,15,n5,15,12,9,0,0,0,0,0,n5,0,0,0,0,0,0,0,0
17/10/12,08:32:06,51 48.7152 N,001 53.2056 W,171.84,103.17,967.3,09,1,N6,51,50,50,50,49,49,48,47,N6,46,43,41,39,34,30,26,22,n6,13,3,0,0,0,0,0,0,n6,0,0,0,0,0,0,0,0
17/10/12,08:32:11,51 48.6550 N,001 52.8340 W,170.25,105.32,964.9,09,1,N7,39,39,39,38,38,37,37,36,N7,35,32,31,28,25,23,18,18,n7,11,10,4,0,0,0,0,0,n7,0,0,0,0,0,0,0,0
17/10/12,08:32:18,51 48.5529 N,001 52.3187 W,173.64,108.41,955.0,09,1,N8,41,40,40,40,39,39,38,37,N8,36,33,32,31,27,25,23,22,n8,20,10,4,0,0,0,0,0,n8,0,0,0,0,0,0,0,0
17/10/12,08:32:24,51 48.4537 N,001 51.8771 W,174.42,109.84,959.0,09,1,N9,99,98,97,97,97,96,96,95,N9,93,91,89,87,84,80,78,68,n9,49,44,29,24,16,0,0,0,n9,0,0,0,0,0,0,0,0
17/10/12,08:32:30,51 48.3504 N,001 51.4325 W,177.70,110.62,954.1,09,1,N0,70,70,69,69,68,68,67,67,N0,65,64,62,58,55,52,42,39,n0,33,22,16,16,16,0,0,0,n0,0,0,0,0,0,0,0,0
17/10/12,08:32:36,51 48.2552 N,001 50.9729 W,182.58,105.65,958.7,09,1,N1,54,53,53,52,52,52,51,50,N1,48,45,43,41,40,37,34,28,n1,23,10,4,0,0,0,0,0,n1,0,0,0,0,0,0,0,0
17/10/12,08:32:41,51 48.2026 N,001 50.5665 W,185.42,100.97,968.1,09,1,N2,52,51,51,50,50,49,48,48,N2,46,44,42,39,37,35,29,27,n2,21,10,4,0,0,0,0,0,n2,0,0,0,0,0,0,0,0
17/10/12,08:32:48,51 48.1325 N,001 49.9941 W,186.73,100.84,972.2,09,1,N3,21,21,21,20,20,20,18,18,N3,15,14,12,11,9,7,3,0,n3,0,0,0,0,0,0,0,0,n3,0,0,0,0,0,0,0,0
17/10/12,08:32:54,51 48.0844 N,001 49.4924 W,189.79,97.62,976.7,09,1,N4,43,42,42,42,42,41,40,40,N4,38,36,36,34,33,30,26,21,n4,18,13,4,0,0,0,0,0,n4,0,0,0,0,0,0,0,0
17/10/12,08:33:00,51 48.0537 N,001 48.9804 W,192.29,94.35,983.0,09,1,N5,52,52,52,51,51,50,49,49,N5,47,46,44,43,39,36,31,27,n5,18,15,9,0,0,0,0,0,n5,0,0,0,0,0,0,0,0
17/10/12,08:33:06,51 48.0390 N,001 48.4602 W,194.17,92.29,988.1,09,1,N6,74,73,73,72,72,71,71,70,N6,68,66,66,63,61,57,53,44,n6,33,21,21,16,16,0,0,0,n6,0,0,0,0,0,0,0,0
17/10/12,08:33:11,51 48.0284 N,001 48.0254 W,194.33,92.09,995.5,09,1,N7,46,45,45,45,44,44,43,42,N7,40,38,37,34,30,26,22,15,n7,14,13,4,0,0,0,0,0,n7,0,0,0,0,0,0,0,0
17/10/12,08:33:18,51 48.0231 N,001 47.4156 W,194.94,89.91,1010.4,09,1,N8,34,34,33,33,33,32,31,30,N8,28,26,25,22,20,17,14,8,n8,5,3,0,0,0,0,0,0,n8,0,0,0,0,0,0,0,0
17/10/12,08:33:24,51 48.0316 N,001 46.8896 W,196.12,88.14,1020.8,09,1,N9,69,68,68,67,67,66,66,65,N9,63,61,60,58,54,53,50,44,n9,37,36,24,24,0,0,0,0,n9,0,0,0,0,0,0,0,0
17/10/12,08:33:30,51 48.0342 N,001 46.3608 W,197.75,90.34,1012.9,09,1,N0,71,70,70,69,69,68,68,67,N0,66,64,62,60,58,56,52,49,n0,33,15,9,0,0,0,0,0,n0,0,0,0,0,0,0,0,0
17/10/12,08:33:36,51 48.0214 N,001 45.8271 W,199.07,93.62,994.1,09,1,N1,53,53,52,52,52,51,50,49,N1,47,46,45,43,40,37,33,30,n1,30,30,28,24,0,0,0,0,n1,0,0,0,0,0,0,0,0